OneWeb SL0653

operational
NORAD ID: 55815 Int'l Des: 2023-029 Owner: ONEWEBN Country: UK Constellation: oneweb
LEOCIRCULARPOLARONEWEB_TYPE

Über OneWeb SL0653

Beschreibung wird geladen...

Live-Position

3D-Globus wird geladen...

Nächste Überflüge

Höhenverlauf

Altitude vs Time

uPlot chart will show altitude changes over time

Zweizeiliger Elementsatz

1 55815U 23029V 25351.30822384 .00000106 00000-0 25199-3 0 9992
2 55815 87.8986 325.9494 0001903 88.0874 272.0474 13.14503710135501
Epoch: 17. Dez. 2025 • Age: 12 hours

Aktueller Status

Höhe 1232.9 km
Geschwindigkeit 7.24 km/s
Subsatellitenpunkt -68.43°S, 63.71°W
Startdatum 9. März 2023
Alter 2.7 years
Typ internet

Technische Details

Klassifizierung Payload
Masse 148.00 kg
Trockenmasse 140.00 kg
Gesamtmasse 148.00 kg
Länge 1.30 m
Durchmesser 1.00 m
Spannweite 5.00 m
Form Trapezoid+2 pan
Hersteller ONEWUS
Bus-Typ ARROW
Phasenstatus In Orbit
Besitzer/Staat ONEWEBN/UK

Große Konstellationen

Loading constellations...